User: anonymous   Login
Location: Снежногорск
(68.0000°N, 88.0000°E)
Time: 15:50:05
(UTC+07:00)
Language:

Tiangong - Orbit

View from above orbital plane
View from above orbital plane
View from above satellite
View from above satellite

Ground track
Ground track

The orbit data is extracted from the following two-line orbital elements,

1 48274U 21035A   22329.70230324  .00017171  00000-0  21865-3 0  9997
2 48274  41.4777 315.2673 0005611 311.0937  29.0888 15.58926126 90011
Epoch (UTC): 25 November 2022 16:51:19
Eccentricity: 0.0005611
inclination: 41.4777°
perigee height: 387 km
apogee height: 394 km
right ascension of ascending node: 315.2673°
argument of perigee: 311.0937°
revolutions per day: 15.58926126
mean anomaly at epoch: 29.0888°
orbit number at epoch: 9001

The dashed part of the orbit path shows where the satellite is in the earth's shadow,  

DLR